Regional Weather Roundup
Issued by NWS

Home | Current Version | Previous Version | Graphics & Text | Print | Product List | Glossary On
Versions: 1 2 3 4 5 6 7 8 9 10 11 12 13 14 15 16 17 18 19 20 21 22 23 24 25 26 27 28 29 30 31 32 33 34 35 36 37 38 39 40 41 42 43 44 45 46 47 48 49 50
000
ASUS43 KFSD 090910
RWRSD

WEATHER ROUNDUP FOR SOUTH DAKOTA
NATIONAL WEATHER SERVICE SIOUX FALLS SD
300 AM CST FRI DEC 09 2016

NOTE: "FAIR" INDICATES FEW OR NO CLOUDS BELOW 12,000 FEET WITH NO
SIGNIFICANT WEATHER AND/OR OBSTRUCTIONS TO VISIBILITY.


SDZ001>005-009-010-012>017-091000-
NORTHWEST AND NORTH CENTRAL SOUTH DAKOTA

CITY           SKY/WX    TMP DP  RH WIND       PRES   REMARKS
BUFFALO          N/A     -9 -13  83 NE7       30.28F WCI -24
FAITH            N/A     -3  -7  82 E7        30.44F WCI -16
MOBRIDGE       CLOUDY    -6 -12  75 N3        30.53S
$$

SDZ012>016-024>037-041>051-057-063-072>074-091000-
SOUTHWEST AND SOUTH CENTRAL SOUTH DAKOTA

CITY           SKY/WX    TMP DP  RH WIND       PRES   REMARKS
RAPID CTY ARPT CLOUDY     1  -5  75 CALM      30.33F
PIERRE         CLOUDY     2  -2  83 NE8       30.55F WCI -12
CUSTER         CLOUDY     2  -4  76 N3        30.07F
ELLSWORTH AFB  CLOUDY     0  -5  80 E7        30.31F WCI -13
PHILIP         CLOUDY    -1  -5  82 E7        30.48F WCI -14
PINE RIDGE     CLOUDY     2  -4  76 E10       30.27F WCI -14
SPEARFISH      FAIR      -8 -13  77 W3        30.24S
WINNER         FAIR       0  -5  79 SE6       30.53S WCI -12
$$

SDZ004>011-016>023-039-040-091000-
NORTHEAST SOUTH DAKOTA

CITY           SKY/WX    TMP DP  RH WIND       PRES   REMARKS
ABERDEEN       CLOUDY    -7 -12  79 CALM      30.61F
WATERTOWN      CLEAR     -3  -7  82 NW5       30.53F WCI -13
BROOKINGS      CLEAR     -2  -6  83 NW5       30.55S WCI -12
SISSETON         N/A     -1  -7  75 NW9       30.58F WCI -16
$$

SDZ017-020-022-023-036>040-048>070-091000-
SOUTHEAST SOUTH DAKOTA

CITY           SKY/WX    TMP DP  RH WIND       PRES   REMARKS
SIOUX FALLS    CLEAR      1  -3  83 W5        30.59S WCI  -9
HURON          CLEAR     -5  -8  87 W6        30.62S WCI -18
CHAMBERLAIN    LGT SNOW   5   2  86 CALM      30.57F
MITCHELL       CLEAR     -1  -5  82 W6        30.63S WCI -13
YANKTON        CLEAR      1  -2  85 W7        30.63R WCI -11
$$

ABBREVIATIONS USED IN REMARKS
   TC - TEMPERATURE IN CELSIUS
  WCI - WIND CHILL INDEX
   HX - HEAT INDEX
  VSB - VISIBILITY




USA.gov is the U.S. government's official web portal to all federal, state and local government web resources and services.